RH
93 93 93 94 96 96 95 91 86 81 78 76 77 76 75 73 72 70 66 65 65 64 61 54 48 46 51 56 55 52 50 47 43 38 35 32 31 30 30 30 30 31 32 32 34 36 37 39 40 41 41 41 40 39 39 40 42 46 48 50 50 52 56 62 70 76 74 69 65 61 61 68 76 77 71 65 63 68 73 77 83 87 89 88 83 77
93 96 97 99 99 97 94 89 85 81 78 77 75 74 70 68 70 72 70 66 62 59 55 47 40 37 39 43 40 37 35 32 31 31 32 31 30 29 27 26 25 24 24 23 23 24 24 26 27 29 31 33 36 37 38 39 39 40 43 46 48 52 57 62 69 77 82 82 80 76 70 63 63 70 77 76 66 62 69 76 80 83 87 89 91 92
102 104 104 102 99 96 92 87 83 78 74 73 71 69 69 66 66 72 77 74 66 57 50 40 35 33 32 34 33 32 33 32 33 34 34 34 32 30 26 23 21 19 17 16 16 15 15 16 17 18 19 21 23 25 28 31 33 35 37 39 41 43 48 55 63 72 81 88 91 90 88 82 72 65 68 77 76 68 66 73 79 81 81 83 87 96
105 102 98 96 93 90 87 83 79 76 72 69 68 68 69 67 66 71 79 81 70 53 40 32 31 33 32 33 34 34 36 36 36 36 36 35 31 27 23 20 18 17 16 15 15 14 14 14 15 15 15 16 17 18 19 21 23 27 30 32 35 37 39 43 49 58 68 79 90 96 98 99 95 85 74 71 76 78 75 73 78 83 83 81 79 86
96 93 90 89 86 84 82 80 79 77 75 71 70 72 74 74 71 66 61 58 53 45 36 29 29 29 30 33 36 37 38 37 37 36 33 29 25 22 20 19 18 18 17 17 16 16 15 15 15 15 14 15 15 15 15 16 18 20 22 26 29 32 35 37 40 45 52 61 73 87 97 102 106 105 97 84 76 76 79 80 81 87 92 90 81 77
93 90 88 85 83 82 83 82 80 80 81 80 79 77 74 67 59 50 42 40 44 46 40 32 28 27 27 31 34 35 35 33 31 27 23 20 18 17 16 16 15 15 14 14 13 13 13 13 13 13 13 13 13 14 14 14 15 16 18 21 23 26 29 33 37 39 42 47 54 66 79 92 103 109 110 105 94 81 77 79 81 88 96 98 91 80
94 90 87 85 84 85 86 85 83 83 85 83 78 71 61 51 43 40 40 41 44 45 39 32 30 28 26 25 25 25 25 24 22 19 17 17 16 15 15 15 14 13 12 11 11 11 11 11 10 11 10 11 11 12 12 13 14 14 15 17 19 21 24 27 31 34 37 40 43 49 58 70 85 98 106 110 110 102 90 82 80 85 93 100 100 91
94 91 89 88 88 90 91 90 86 83 80 74 65 56 47 43 42 42 43 43 43 42 39 34 31 27 24 21 19 20 20 19 19 18 19 18 18 17 15 14 13 12 11 10 10 9 9 8 8 8 7 7 8 8 9 10 11 12 13 14 15 17 20 22 25 28 32 35 37 40 44 52 62 77 91 100 108 111 107 99 91 87 88 95 102 102
92 94 96 97 97 96 92 87 80 72 65 57 49 44 42 41 42 42 43 45 45 44 42 37 32 28 25 23 22 22 21 20 21 21 21 19 17 16 14 13 12 11 10 9 8 7 7 7 6 6 6 6 6 6 6 6 7 8 8 9 11 13 15 18 21 23 26 29 33 35 38 42 47 56 67 81 94 103 109 109 105 101 95 91 98 104
100 102 101 99 95 88 80 73 64 56 50 46 44 44 43 41 40 40 43 47 48 46 43 38 33 30 28 26 25 25 23 21 20 18 17 16 14 13 12 11 10 9 8 7 7 7 6 6 6 6 6 6 5 5 5 5 5 5 6 6 7 9 11 13 16 19 22 25 28 31 34 36 40 44 50 59 71 84 96 103 108 112 106 97 98 102
96 94 90 87 82 76 70 63 54 47 43 41 41 42 42 41 42 45 47 48 48 46 41 37 36 33 29 25 23 22 19 17 15 13 13 13 12 10 9 7 6 6 5 5 5 5 5 6 6 6 5 5 5 6 5 6 6 5 5 6 6 6 7 9 11 14 17 20 23 26 29 32 34 38 42 46 52 61 73 85 99 108 108 105 104 103
91 93 90 86 82 77 68 59 51 45 41 38 37 39 43 47 49 50 49 46 46 44 39 35 34 30 25 22 19 18 16 14 13 12 11 10 9 8 7 6 5 4 4 5 5 5 5 5 5 5 5 5 5 5 6 6 6 7 6 6 6 6 6 7 8 10 12 15 18 21 24 27 30 33 36 40 44 47 53 61 74 88 99 107 108 107
98 96 93 85 75 68 62 58 54 50 47 46 47 47 47 47 45 42 39 37 38 37 32 28 26 23 20 18 17 16 14 12 11 10 10 9 8 7 6 5 5 5 5 5 5 5 5 5 5 4 4 4 4 4 4 5 5 6 6 6 6 6 6 6 7 8 9 11 13 16 20 22 26 29 31 35 39 42 46 49 54 63 75 90 102 108
87 81 76 71 64 59 56 55 52 50 51 52 50 45 39 34 30 28 26 25 26 26 25 24 22 19 17 17 17 16 14 12 11 10 8 7 6 6 6 6 6 6 5 5 5 5 4 4 4 4 4 4 4 3 3 4 4 4 5 5 6 6 7 7 6 7 7 8 10 12 15 17 20 23 26 29 33 37 41 45 47 50 55 64 78 93
77 71 65 65 65 59 50 46 46 48 48 46 41 35 29 26 25 23 20 18 18 19 21 22 21 17 16 18 16 14 13 11 10 9 8 8 7 8 8 7 7 6 5 5 5 4 4 4 4 3 4 3 3 3 3 3 3 3 3 3 4 5 5 6 6 7 7 7 8 9 11 13 15 18 21 23 26 29 33 38 43 46 48 51 57 67
73 69 63 60 57 50 46 44 45 45 42 38 35 31 28 25 24 21 18 18 19 18 19 21 20 14 15 17 13 11 11 9 9 9 9 9 8 8 8 7 6 6 5 5 4 4 4 3 4 3 3 3 3 3 3 3 3 3 3 3 3 4 4 5 5 6 7 7 7 8 8 10 12 13 16 18 20 23 26 29 34 39 44 47 49 53
75 67 53 46 44 46 49 48 42 39 37 35 32 29 25 22 21 21 19 19 19 19 20 23 20 13 13 15 12 10 10 9 8 8 8 8 7 7 6 6 5 5 5 4 3 4 4 3 3 3 3 3 3 3 3 3 3 3 3 3 3 3 3 4 4 4 5 6 6 7 7 8 9 10 12 14 16 19 21 23 25 29 34 40 46 49
71 59 45 44 48 49 48 44 38 34 33 30 28 26 24 22 23 22 20 19 19 20 23 25 21 11 10 13 10 9 9 8 8 8 7 7 6 6 6 5 4 4 4 4 3 3 3 3 3 3 3 3 3 3 3 3 3 3 3 3 3 3 3 3 4 4 4 5 5 5 6 7 7 8 9 10 13 15 18 20 21 22 25 29 35 42
59 58 54 52 52 46 41 38 35 31 28 27 26 25 25 26 25 23 22 21 20 19 19 22 21 13 11 13 11 9 9 7 8 8 7 7 6 6 5 4 4 4 3 3 3 3 3 3 3 3 3 3 3 3 3 3 3 3 3 3 3 3 3 3 4 4 4 4 4 4 5 5 6 6 7 8 9 11 14 16 18 19 21 23 25 30
60 65 62 52 46 43 38 34 32 30 30 29 28 26 24 23 23 23 25 24 21 18 15 18 21 16 12 13 11 9 9 8 8 9 8 8 7 6 5 4 4 4 4 3 3 3 3 3 3 3 3 3 3 3 4 4 4 4 3 3 4 3 3 3 3 4 4 4 4 4 4 4 5 5 6 6 7 8 10 12 14 16 18 20 21 22
65 64 60 51 44 42 39 36 34 34 33 31 29 25 22 20 21 23 24 24 21 18 14 14 17 15 12 13 12 11 11 10 10 10 10 9 8 8 6 5 5 4 3 3 3 3 3 3 3 3 3 3 3 3 3 4 4 4 4 4 4 4 4 4 4 4 4 4 4 4 4 4 4 4 4 5 5 6 7 8 9 11 13 15 17 18
62 58 54 50 44 43 43 41 38 36 33 31 27 24 22 22 23 23 24 24 21 17 13 13 18 18 16 16 15 13 13 12 11 11 11 11 10 9 7 6 5 4 3 3 3 3 3 3 3 3 3 3 3 3 3 3 4 4 4 4 4 4 4 4 4 4 4 4 4 4 5 4 4 4 4 4 5 5 5 6 6 7 9 10 12 14
57 54 52 51 47 45 43 41 39 36 32 29 27 25 23 22 22 22 23 25 25 22 16 16 21 20 17 17 16 13 13 12 11 13 13 12 11 9 8 6 5 4 4 3 3 3 3 3 3 3 3 3 4 4 4 4 4 3 4 4 4 4 4 4 4 4 4 4 4 4 4 5 5 5 5 5 5 5 5 5 5 5 6 7 9 10
54 52 53 54 51 47 44 42 40 36 32 29 26 24 23 22 23 23 23 25 30 31 24 19 23 22 15 15 15 12 13 13 12 14 14 12 11 9 8 7 5 5 4 3 3 3 3 3 3 3 3 3 4 4 4 4 4 4 4 4 4 4 4 4 5 5 5 5 5 5 4 4 5 5 5 5 5 5 5 5 5 5 5 6 7 7
54 51 51 51 49 46 44 42 40 35 31 27 24 23 23 23 23 24 23 24 30 36 31 22 23 26 19 14 14 14 14 15 14 14 14 11 10 9 8 7 6 5 4 4 3 3 3 3 3 3 3 3 3 4 4 4 4 4 4 4 4 4 4 4 4 4 5 5 5 5 5 4 5 4 5 5 5 5 6 6 6 6 6 6 6 6
56 52 48 46 44 42 40 37 35 32 29 27 25 24 24 26 27 28 26 25 29 37 37 28 25 30 29 22 18 18 19 20 19 18 17 14 11 10 9 7 6 5 5 4 4 3 3 3 3 3 4 3 3 4 4 4 4 4 4 4 4 4 4 4 4 4 4 5 5 5 5 5 5 5 5 5 5 5 5 5 6 6 6 6 6 6
56 53 49 45 42 41 39 34 31 31 31 31 30 28 27 28 32 35 33 29 32 40 45 41 32 28 30 29 25 23 24 24 23 22 22 19 15 12 10 8 7 6 5 4 4 4 4 4 4 3 4 4 4 4 4 4 4 3 4 4 4 4 4 4 4 4 4 4 4 5 5 5 5 5 5 5 5 5 5 5 5 5 6 6 6 6
56 54 51 48 44 42 42 39 35 34 33 32 32 32 33 33 36 42 40 34 36 43 45 45 41 33 30 31 29 26 26 26 24 23 24 22 16 13 10 8 7 5 5 5 4 4 4 4 4 4 4 4 4 4 4 4 4 4 3 4 4 4 4 4 5 5 4 4 4 4 5 5 5 6 5 6 6 5 5 5 5 5 5 5 5 5
54 54 53 53 48 43 43 44 40 38 36 34 33 34 37 39 40 45 45 36 35 44 45 43 44 40 32 30 30 27 26 26 24 22 23 22 16 12 10 9 7 6 5 5 5 5 5 4 4 4 4 4 4 4 4 4 4 4 3 4 4 4 4 4 4 4 5 5 5 5 5 5 5 5 5 6 5 5 5 5 5 5 5 5 5 5
54 54 53 55 55 48 45 47 44 41 39 38 38 37 38 40 42 46 48 38 31 40 44 40 39 39 36 34 33 30 27 26 24 21 21 21 16 12 11 9 8 7 5 5 5 5 5 4 4 4 4 4 4 4 4 4 4 4 4 4 4 3 4 4 4 4 4 5 5 5 5 5 5 5 5 5 5 5 5 5 5 5 5 5 4 5
53 53 51 54 58 53 48 50 49 45 43 43 42 39 38 40 43 48 51 40 29 34 41 41 39 37 36 36 35 34 32 29 24 19 18 19 16 13 11 9 8 7 5 5 5 5 5 5 4 5 4 4 5 4 4 4 4 4 3 4 4 3 4 4 3 4 4 4 4 5 5 5 5 5 5 5 5 5 5 5 5 5 5 5 5 5
53 53 52 52 57 56 51 51 53 51 49 46 43 41 41 44 43 47 53 44 30 32 39 43 43 39 35 34 35 38 39 35 28 20 16 18 17 14 12 9 8 7 6 5 5 5 6 5 5 5 5 5 5 5 5 5 4 4 4 3 4 3 4 4 3 4 4 3 4 4 4 5 5 5 5 4 5 5 5 5 5 5 5 5 5 5
55 55 53 52 55 56 51 49 51 52 50 48 47 45 44 47 43 44 53 47 32 32 40 43 44 40 35 33 33 37 41 39 31 22 17 16 15 14 14 10 8 7 6 6 6 5 6 6 5 5 5 5 5 5 5 5 4 5 4 4 4 4 4 4 3 3 4 3 4 4 4 5 5 5 5 5 5 4 5 5 5 5 5 5 5 5
59 57 56 55 55 54 52 50 49 51 51 49 50 47 44 47 44 43 54 52 35 34 42 44 43 38 33 33 33 33 36 37 32 24 19 17 15 13 14 13 10 8 7 6 7 6 7 6 6 6 5 5 5 5 5 5 5 5 4 4 4 4 4 4 4 4 4 3 3 4 4 4 5 5 5 5 5 5 4 5 5 5 5 5 5 5
62 59 58 60 58 52 51 52 48 49 53 52 51 47 44 49 45 41 56 62 43 34 43 46 42 37 32 33 34 31 31 33 32 25 21 20 18 14 14 14 11 10 8 7 7 7 7 7 6 6 5 5 6 6 6 6 5 5 5 4 5 4 4 4 4 4 4 4 4 3 4 4 4 4 5 5 5 5 5 5 5 5 5 5 5 5
67 62 61 66 64 53 49 54 49 45 51 56 56 51 47 52 47 37 51 67 55 41 44 46 41 36 32 31 32 29 27 30 32 26 21 21 20 16 15 14 11 10 8 7 7 7 7 6 6 6 5 5 5 6 5 5 5 5 5 5 5 5 4 4 4 4 4 4 4 4 4 4 4 4 4 5 5 5 5 5 5 5 5 5 5 5
71 66 63 71 71 57 49 53 48 39 44 51 53 49 45 49 48 36 41 61 61 47 42 42 38 34 30 29 29 26 24 26 28 25 20 20 19 16 14 13 10 9 8 7 7 7 6 6 6 5 5 5 5 5 5 5 5 5 5 5 5 5 4 4 4 4 4 4 4 4 4 4 4 4 4 4 5 5 5 5 5 5 5 5 5 5
75 69 68 78 80 63 50 50 43 34 37 44 44 42 39 42 44 36 35 50 55 45 38 36 34 30 27 27 28 25 22 21 25 24 19 18 18 16 14 13 11 9 9 8 7 7 6 6 6 6 5 5 5 5 5 5 5 5 5 5 5 5 4 4 4 4 4 4 4 4 5 4 4 4 4 4 4 4 5 5 5 5 5 5 5 5
78 70 70 84 87 70 57 55 45 32 34 42 42 36 33 37 40 35 32 42 46 38 33 32 30 28 28 28 28 26 22 19 21 23 21 18 17 15 13 13 11 10 9 9 8 7 6 6 6 6 6 5 5 5 5 5 5 5 5 5 5 5 4 4 4 4 4 4 4 4 5 4 4 4 4 4 4 4 5 5 4 5 5 5 5 5
77 66 69 85 88 73 62 59 47 33 36 44 41 33 29 33 38 35 33 38 38 32 29 31 30 30 30 29 28 27 24 20 19 21 21 19 17 15 13 12 11 10 9 9 8 7 7 6 6 6 6 5 5 5 5 5 5 5 5 5 5 5 5 4 4 4 4 4 4 4 5 4 4 4 4 4 4 4 4 4 4 5 5 5 5 5
75 61 65 82 84 71 66 62 44 31 39 45 39 30 27 32 39 38 37 40 37 30 30 32 33 32 31 31 30 29 28 25 22 21 21 19 17 15 13 12 10 10 9 9 8 8 7 7 6 6 6 5 5 5 5 5 6 5 5 5 5 5 5 5 5 5 4 4 4 4 5 4 4 4 4 4 4 4 4 4 4 4 4 4 5 5
76 58 63 78 76 66 70 68 43 26 37 45 38 28 26 34 42 40 40 45 42 33 32 34 36 35 32 33 33 31 31 29 26 24 22 19 17 15 14 12 10 10 10 9 8 8 7 7 7 6 6 5 5 5 5 5 5 5 5 5 5 5 5 5 5 5 5 5 5 4 4 4 4 4 4 4 5 4 4 4 4 4 4 4 4 5
74 60 61 71 69 64 73 75 49 28 36 44 39 31 28 35 43 39 38 43 40 33 33 35 37 36 32 32 34 33 32 30 26 24 22 19 17 15 12 11 10 10 10 9 9 8 7 7 7 6 6 6 5 5 5 5 5 5 4 5 5 5 5 5 5 5 5 5 5 5 4 4 4 4 4 4 4 4 4 5 4 4 4 4 4 4
70 61 61 64 63 64 77 79 53 33 39 44 39 35 34 39 43 37 35 38 35 32 34 35 36 36 32 31 33 33 32 29 25 23 21 18 16 14 11 11 10 9 10 9 8 8 7 7 7 6 6 6 5 5 5 5 5 5 4 5 5 5 5 5 5 5 5 5 5 5 5 5 4 4 4 4 4 4 4 4 4 4 4 4 4 4
69 63 63 61 60 65 81 81 52 33 42 47 39 37 41 46 44 35 32 34 33 33 36 35 36 36 32 30 31 31 30 27 24 22 20 16 15 13 10 10 9 9 10 9 8 8 7 7 7 6 6 6 6 6 5 5 5 5 5 5 5 5 5 5 5 5 5 5 5 5 5 5 5 5 5 4 4 4 4 5 5 4 5 4 4 5
70 65 63 58 57 61 73 74 49 33 46 56 47 41 46 50 44 35 32 33 34 36 39 39 38 37 33 31 31 29 28 25 22 20 18 15 14 12 9 9 9 9 9 8 8 8 7 7 7 6 6 6 6 6 6 5 5 5 5 6 6 5 5 5 5 5 5 5 5 5 5 5 5 5 5 5 5 5 4 5 5 4 5 5 5 5
69 68 63 55 54 55 59 58 42 34 55 69 56 46 50 51 43 37 36 37 37 40 43 43 41 38 34 32 29 27 27 24 20 18 16 13 12 10 9 9 9 9 9 8 8 8 7 7 7 7 7 7 6 6 6 5 5 5 5 6 6 5 5 5 5 5 5 5 5 5 5 5 5 5 5 5 5 5 5 5 5 4 5 5 5 5
70 74 66 53 50 50 49 47 38 39 66 82 66 53 55 50 38 37 41 41 42 43 43 42 41 37 33 31 28 25 25 23 19 16 14 12 11 9 9 9 8 8 9 8 8 8 7 7 7 7 7 6 6 6 6 5 6 6 5 6 6 5 5 5 5 5 5 5 5 5 5 5 5 5 5 5 5 5 5 5 5 4 4 5 5 5
75 78 67 51 45 44 45 45 40 44 68 82 69 57 56 46 35 38 45 44 43 43 41 39 39 36 32 31 27 24 23 21 17 14 12 11 10 9 8 9 8 8 9 8 8 8 7 7 7 7 7 6 6 6 6 6 6 6 6 6 6 6 6 5 5 5 5 5 5 5 5 5 5 5 5 5 5 5 5 5 5 4 4 5 5 5
78 78 65 49 42 43 48 50 46 48 62 68 59 52 49 40 36 42 47 45 43 42 40 38 37 34 31 30 27 24 21 19 16 14 12 10 9 9 9 9 8 8 8 8 8 8 7 7 7 6 7 6 6 5 6 5 6 6 6 6 6 6 6 5 5 5 5 5 5 5 5 5 5 5 5 5 5 5 5 5 5 5 4 4 4 5
77 73 58 46 43 48 56 56 51 54 60 55 47 44 42 39 40 45 47 45 43 41 39 38 36 33 31 29 26 22 19 16 14 12 11 9 9 9 9 8 8 8 8 8 8 8 7 7 7 6 6 6 6 5 5 5 6 6 6 6 6 6 6 5 5 5 5 5 5 5 5 5 5 5 5 5 5 5 5 5 5 5 5 4 4 5
Wind_Speed
78 80 81 82 84 85 87 89 91 93 94 95 96 97 98 98 99 102 103 103 103 103 103 103 102 103 104 105 106 107 109 110 111 111 110 109 107 105 103 102 101 100 100 100 99 99 99 99 99 99 99 99 98 97 96 95 93 92 91 90 89 87 85 84 83 85 87 88 89 89 88 88 89 90 90 91 92 93 95 96 99 101 101 101 100 99
80 81 83 84 86 87 89 92 94 95 96 97 98 99 100 101 101 102 104 104 104 105 105 105 103 103 105 107 108 108 109 110 110 109 108 107 106 105 104 103 103 102 101 101 100 100 99 99 99 99 99 99 99 99 99 98 98 97 96 95 94 92 90 89 87 87 88 89 90 91 91 91 91 91 91 92 93 94 95 97 99 101 103 104 103 101
81 83 84 86 88 89 92 94 96 98 98 99 100 101 102 103 102 102 103 106 107 108 108 107 106 106 107 109 110 110 110 109 108 107 107 107 106 106 105 105 104 103 102 101 101 100 99 99 99 99 99 99 99 99 99 99 99 99 99 98 98 97 95 94 93 91 91 91 91 92 93 94 93 93 93 94 95 95 95 97 99 101 103 105 105 104
82 84 86 88 90 92 94 96 98 99 100 101 102 103 104 104 104 103 103 105 108 109 110 108 108 108 109 110 110 109 108 107 106 107 107 107 107 107 106 106 106 105 104 103 102 101 100 100 99 99 99 99 99 98 98 98 99 99 100 100 100 100 99 98 97 96 96 95 94 94 95 95 96 96 96 96 96 97 97 98 99 101 103 105 106 106
84 86 88 90 92 94 95 97 99 101 102 103 104 104 105 105 105 106 105 105 107 109 110 109 108 108 108 108 107 107 106 106 106 107 107 107 106 106 106 106 105 105 104 103 102 102 101 100 99 99 99 99 99 99 98 98 98 98 99 100 101 101 102 101 101 100 100 100 99 98 98 98 98 99 99 99 99 99 100 100 100 101 103 105 106 106
86 89 91 93 94 96 97 98 100 101 103 104 105 105 105 105 105 107 107 107 108 110 111 110 108 105 104 105 106 107 106 106 106 106 106 105 104 104 103 103 103 102 102 101 100 100 99 99 99 99 99 99 99 99 99 99 99 99 99 99 100 101 102 103 103 103 103 103 103 103 102 101 101 101 102 102 103 103 102 103 102 102 104 106 107 107
90 92 94 96 97 98 99 100 102 103 104 105 105 105 105 106 106 107 108 109 110 111 111 109 107 104 102 103 105 105 106 106 106 105 105 104 103 103 103 103 103 102 101 100 100 99 99 99 98 98 98 98 98 98 98 99 99 99 99 100 100 101 102 103 104 105 105 105 105 106 106 106 105 105 105 105 106 106 106 106 105 105 105 106 108 109
92 95 97 98 99 100 101 102 103 104 104 104 104 105 106 106 107 108 109 110 110 109 109 108 107 106 104 104 105 105 105 105 106 106 106 105 105 104 103 103 103 102 101 99 98 98 98 98 98 98 98 98 98 98 98 99 99 99 100 100 100 101 101 102 104 105 106 107 108 108 108 109 109 109 109 109 109 109 109 109 109 108 108 108 108 110
95 97 98 100 101 102 103 103 104 103 103 103 104 105 106 107 108 108 108 107 107 107 108 109 109 108 107 106 107 106 106 106 106 106 106 105 104 103 102 102 102 101 100 99 99 98 98 97 97 98 98 98 98 98 99 99 99 99 99 100 100 101 102 102 103 105 106 107 108 109 110 111 111 112 112 113 113 113 113 112 112 112 112 111 111 111
97 98 100 101 102 103 103 103 103 103 103 103 104 106 107 107 107 105 104 104 105 108 110 110 111 111 108 106 107 107 106 105 103 102 102 101 101 101 100 100 100 99 99 98 97 97 96 96 96 96 97 98 98 99 99 99 99 99 99 100 100 101 102 103 104 105 106 107 108 110 111 112 112 113 114 115 116 117 117 116 116 116 116 115 114 114
98 100 101 102 103 103 103 103 104 104 104 104 104 104 105 105 104 103 103 103 105 108 110 110 111 111 109 105 104 104 103 101 100 99 98 99 99 99 98 98 97 96 95 94 92 92 91 91 92 93 94 94 95 96 97 98 98 99 100 100 100 100 100 102 104 106 107 108 109 110 111 112 113 114 115 117 118 119 120 120 120 120 120 119 118 118
100 100 101 102 102 103 104 105 106 106 106 105 104 102 100 100 100 101 101 102 103 105 107 107 106 107 105 103 101 101 100 99 98 98 97 97 97 97 96 95 94 93 91 90 88 86 86 86 88 89 90 90 91 91 93 94 95 97 99 100 100 100 100 101 103 105 107 108 110 111 112 112 113 114 115 116 118 120 121 122 123 123 123 123 122 122
100 100 101 102 103 104 105 105 106 107 106 105 102 99 98 98 98 98 97 97 97 99 102 103 102 101 100 100 100 99 99 98 97 97 96 96 95 94 93 92 91 89 88 86 85 84 84 83 84 86 87 87 88 88 89 90 91 93 96 98 99 100 100 101 102 103 105 107 109 111 113 114 114 115 115 116 118 119 121 123 124 125 126 126 126 126
100 100 101 102 104 105 105 105 105 104 102 100 98 97 96 96 96 94 93 92 91 91 95 98 99 98 96 97 98 98 98 97 96 95 94 93 92 91 91 90 89 88 87 85 84 83 82 81 81 82 83 84 86 86 87 87 88 90 92 95 96 98 99 101 102 102 103 105 107 110 112 115 116 116 117 117 117 118 120 122 124 125 127 128 129 129
100 101 101 102 104 105 105 103 101 99 98 97 97 96 95 95 94 93 91 90 89 89 91 94 96 95 94 94 95 96 96 95 94 92 92 91 90 90 89 88 87 86 85 83 81 79 78 77 77 77 79 80 82 84 85 85 86 87 89 91 92 94 97 99 101 102 103 104 105 107 110 113 115 117 118 118 119 119 120 121 122 124 126 128 129 130
101 102 102 102 102 102 100 98 96 96 96 97 97 96 95 94 93 92 91 91 91 90 90 92 94 94 92 92 94 94 93 93 92 91 91 90 89 88 87 86 84 83 81 79 76 74 73 72 72 72 73 75 77 80 83 84 85 85 86 87 88 90 93 96 98 100 102 103 104 105 107 110 113 115 117 119 120 121 121 121 122 123 124 126 128 130
102 102 101 100 98 96 95 94 94 95 96 96 96 95 93 92 91 91 90 91 92 91 90 90 92 92 90 90 91 90 90 90 89 88 88 88 87 86 85 84 83 81 78 76 74 72 70 69 68 68 68 70 72 74 78 81 83 84 84 85 85 87 89 92 95 97 100 102 103 104 105 107 110 112 115 117 119 121 122 123 123 124 124 125 126 127
99 99 98 95 93 92 92 93 93 94 94 94 94 93 93 92 91 91 89 89 90 90 87 87 91 91 88 87 88 87 87 86 85 85 85 84 84 84 83 82 80 79 76 74 72 70 69 68 67 66 66 67 68 69 72 75 78 81 83 83 83 84 86 88 91 94 97 99 101 103 104 105 107 109 111 114 116 119 122 123 125 125 125 125 126 126
94 94 92 91 90 90 91 92 92 92 92 92 93 93 93 92 91 90 89 88 88 88 84 83 87 90 87 86 87 85 84 83 82 83 83 83 82 82 81 80 78 77 76 74 71 69 68 67 66 66 65 65 66 67 69 71 73 76 79 81 82 83 84 85 87 90 93 97 99 100 102 104 105 107 109 111 113 115 119 122 124 125 126 126 127 128
88 88 89 90 90 90 91 91 91 91 91 92 92 91 91 90 89 88 87 87 88 88 85 81 83 88 86 84 85 84 83 82 80 81 82 81 81 81 80 79 78 77 75 73 71 68 67 66 66 66 65 64 65 66 67 68 70 72 74 77 79 81 83 84 85 87 89 92 95 98 100 101 103 104 106 108 110 112 115 118 121 123 125 127 128 130
85 86 89 90 90 90 90 90 90 90 90 89 89 88 88 87 86 86 85 86 87 88 87 82 82 86 85 84 85 84 83 82 80 80 81 81 81 81 81 80 78 77 75 72 70 68 66 65 64 64 64 64 65 65 66 67 68 70 71 73 75 78 80 83 84 85 86 88 91 94 97 99 100 102 103 105 107 109 111 114 116 119 122 125 128 130
84 86 88 89 89 89 89 89 89 89 88 87 86 86 86 85 84 83 81 82 84 86 86 83 83 85 85 83 84 84 83 82 81 80 81 80 80 80 80 80 78 76 74 72 70 68 66 65 63 62 62 63 64 65 65 66 67 68 69 71 73 75 77 79 82 84 85 87 88 91 93 95 97 98 100 102 104 106 108 109 112 114 117 121 124 127
84 85 87 88 88 87 87 87 87 86 85 85 84 83 84 83 83 82 79 78 81 84 85 83 82 84 84 82 82 82 82 82 80 80 80 79 79 79 80 79 78 76 75 73 70 68 66 64 62 61 60 60 61 62 64 65 66 66 67 69 70 72 74 76 78 80 83 85 86 88 90 92 94 96 97 99 101 103 104 106 107 109 112 116 119 122
83 84 85 86 86 86 85 85 84 83 82 81 81 81 82 82 82 82 80 78 79 82 84 82 80 82 83 81 81 81 81 81 81 80 80 79 78 78 78 79 78 77 75 74 72 70 67 65 63 61 60 59 59 59 61 62 63 64 66 67 68 69 71 73 75 77 79 81 83 85 87 89 91 93 95 96 98 99 101 103 104 105 108 111 115 118
83 83 83 83 83 82 81 80 79 80 80 79 79 78 79 81 82 82 80 78 77 80 83 82 79 79 82 82 81 81 81 82 82 81 81 80 78 77 77 77 77 76 75 74 73 71 69 67 65 63 61 60 59 58 58 59 60 61 62 64 66 67 68 70 72 73 76 78 80 82 84 86 88 90 91 93 95 97 98 100 101 102 104 107 110 114
83 83 83 82 81 80 79 77 76 76 77 78 78 78 78 80 81 82 81 78 77 78 82 84 80 77 79 81 82 82 82 84 84 83 83 82 80 78 76 74 74 74 73 73 73 72 70 68 65 64 62 61 60 59 58 57 58 59 59 60 62 63 66 68 69 70 72 74 76 78 81 83 84 86 88 90 92 93 95 97 99 101 102 104 106 109
81 82 82 82 81 80 80 79 77 76 77 77 78 80 80 81 82 84 84 81 78 78 80 83 83 79 76 78 80 80 81 84 85 83 83 83 82 79 77 74 72 72 72 71 71 71 70 68 66 64 62 61 60 60 60 59 58 58 57 57 58 60 62 64 66 68 69 71 72 74 77 78 80 82 84 87 89 90 92 93 95 98 100 102 104 105
78 78 80 81 80 78 78 79 78 77 77 77 78 79 81 82 82 84 85 83 80 79 80 81 83 82 79 78 79 80 80 82 84 83 82 83 82 79 77 75 72 71 70 70 69 69 68 67 66 65 63 62 60 59 60 60 59 59 57 57 57 57 58 59 61 63 66 67 69 70 72 74 76 78 81 83 86 88 89 90 92 94 96 98 100 102
76 76 77 79 80 78 76 78 78 78 78 78 78 79 80 81 81 83 85 84 81 80 81 81 82 84 82 79 80 81 81 82 83 82 81 82 82 79 78 77 74 72 70 69 68 67 65 64 63 63 63 62 61 59 59 59 59 59 58 58 57 56 56 56 57 59 61 63 65 67 69 71 73 75 78 80 82 84 86 87 89 91 93 94 96 98
75 75 75 75 78 79 77 77 79 78 78 78 79 79 79 79 80 82 85 85 81 80 82 82 80 82 83 81 80 80 80 81 83 82 81 82 82 79 78 78 77 75 73 71 69 67 65 63 62 61 61 61 61 60 59 58 58 58 58 58 57 56 55 55 55 56 58 59 61 63 65 68 70 72 74 76 79 81 83 85 86 88 90 91 93 94
75 75 74 74 76 78 77 77 78 79 79 78 78 79 78 78 78 80 84 86 82 79 81 82 81 80 80 80 80 81 81 81 83 83 80 82 82 80 78 78 78 76 74 72 70 68 67 66 64 62 61 61 61 61 60 59 58 58 57 56 56 56 55 54 54 55 55 56 58 60 62 64 67 69 71 73 75 78 80 82 83 85 86 87 89 91
76 76 75 74 74 76 76 76 77 78 79 78 78 79 78 77 77 77 82 87 84 80 79 81 81 80 79 79 79 80 81 82 84 84 80 79 81 80 79 78 77 77 75 73 70 68 67 66 65 63 62 61 61 60 60 60 59 59 58 56 55 55 54 54 54 54 55 55 55 57 58 61 63 66 69 71 72 74 76 78 80 82 83 84 86 88
78 78 77 76 75 76 76 75 76 77 79 78 78 79 78 77 76 75 80 86 84 80 79 80 80 80 79 78 77 78 79 81 83 84 81 78 79 79 79 79 78 78 76 74 72 70 68 66 65 63 62 61 60 60 60 60 60 60 59 58 56 55 53 53 53 54 54 55 55 55 55 57 60 63 66 68 70 71 73 75 77 79 80 81 83 84
79 79 79 79 78 76 76 76 75 77 79 79 79 79 77 77 77 75 77 85 85 80 79 79 79 79 78 78 77 76 76 79 82 84 82 80 79 78 79 80 79 79 78 76 74 72 70 68 66 64 62 60 60 59 59 59 59 59 59 58 57 56 54 53 53 54 54 55 54 54 54 56 57 60 62 65 67 68 70 72 74 75 77 78 80 81
81 81 81 81 81 78 76 77 77 76 79 81 80 80 78 78 78 76 75 83 86 81 79 79 78 78 77 76 76 76 75 77 81 84 82 82 82 80 79 80 80 80 78 76 74 73 70 69 67 65 63 61 59 58 57 58 58 58 58 57 56 56 55 54 54 54 54 54 54 53 54 55 56 58 60 62 63 65 67 69 70 72 74 75 77 79
82 83 82 83 84 81 78 79 79 77 78 81 81 81 79 78 79 76 73 79 85 83 79 79 78 78 77 76 76 76 75 75 80 84 83 82 83 82 81 80 80 79 78 76 74 72 70 68 66 65 63 61 59 57 56 56 56 56 56 56 55 55 54 54 54 54 54 53 53 53 54 55 56 57 58 59 61 62 64 65 67 69 70 72 74 76
84 84 84 84 86 85 81 81 81 79 78 80 80 80 78 78 80 79 74 76 82 82 79 79 79 78 77 77 76 76 75 74 77 82 83 82 82 82 80 80 79 78 78 76 75 73 71 69 67 65 64 61 59 57 56 55 55 54 54 54 54 53 52 52 53 53 53 53 52 53 53 54 55 56 56 57 58 60 61 63 65 66 67 69 71 73
85 85 85 85 87 88 85 84 83 81 80 81 81 80 79 78 80 81 77 76 80 81 79 79 79 78 78 78 78 78 76 74 75 80 82 81 82 82 80 80 79 78 78 77 75 73 71 70 69 67 65 62 60 58 56 55 55 54 54 53 52 52 52 51 51 51 52 52 51 52 53 54 54 55 55 55 56 58 59 61 62 63 64 66 68 70
86 86 85 85 87 89 88 87 87 85 83 84 84 83 80 79 81 82 79 77 79 79 79 79 80 80 79 79 80 80 80 77 76 78 81 82 83 83 82 80 80 79 79 78 77 74 71 70 69 67 66 64 61 59 57 56 55 55 54 53 51 51 50 50 50 50 51 51 51 51 52 53 54 54 54 54 55 56 58 59 59 60 61 63 65 67
87 86 84 84 86 88 89 89 89 87 86 87 87 85 82 81 83 84 83 81 81 81 80 80 81 82 81 81 81 82 83 82 80 79 81 82 83 83 83 82 81 80 78 78 77 76 73 70 69 67 66 64 62 60 58 57 57 56 54 53 51 50 50 49 49 49 50 50 50 50 51 52 53 53 53 53 53 55 56 57 58 58 59 60 62 64
88 86 84 84 86 87 88 91 90 87 87 89 90 88 84 83 85 86 85 84 85 84 83 82 83 83 82 82 83 83 85 86 85 83 83 83 83 84 83 82 81 80 79 77 76 75 73 71 70 68 66 64 62 60 59 58 57 56 54 53 52 50 49 48 48 48 48 48 49 49 50 51 52 53 53 52 53 54 54 55 56 57 57 58 59 61
89 87 84 84 86 87 88 92 93 88 87 90 92 90 87 86 86 87 86 86 87 86 85 84 85 85 84 84 85 86 86 87 87 86 86 86 85 85 84 82 81 80 79 77 76 75 73 71 70 69 67 65 62 61 59 58 57 55 53 52 52 51 50 49 48 47 47 47 47 48 48 50 51 52 52 52 52 53 53 53 54 56 56 56 57 58
91 89 86 85 86 88 89 94 96 92 89 91 93 93 90 87 88 88 86 86 87 87 86 86 86 87 86 85 86 88 88 89 88 88 88 87 86 85 84 82 81 80 78 77 76 75 73 71 70 69 67 65 63 61 59 58 57 55 53 51 51 51 51 50 49 48 47 46 46 46 47 48 49 50 51 52 52 52 52 52 53 54 55 55 56 57
91 90 87 86 86 88 90 95 97 94 92 92 93 93 91 89 88 87 86 86 86 86 86 86 86 87 87 87 87 89 89 89 89 88 88 87 86 85 84 82 81 79 78 77 76 75 73 71 69 68 67 65 63 61 60 57 56 55 54 52 51 51 51 51 50 49 48 47 46 45 45 46 47 48 49 50 50 51 51 52 52 53 53 53 55 55
91 89 88 87 87 88 90 94 96 93 92 94 93 91 90 89 88 87 86 86 86 86 87 87 87 87 88 88 88 89 89 89 89 88 88 87 86 85 83 81 80 79 78 77 76 75 74 72 70 69 67 65 64 62 60 57 56 55 54 52 52 51 51 51 50 49 48 48 47 46 45 45 45 46 47 47 48 48 49 50 51 52 52 52 53 54
91 90 89 88 88 87 88 92 94 92 91 94 95 91 89 89 89 88 88 87 87 87 88 88 88 88 89 89 89 89 89 89 89 88 88 86 85 84 82 81 79 78 77 76 76 75 74 72 71 69 67 66 64 62 60 58 56 54 53 52 51 51 50 50 49 49 48 48 47 46 46 45 45 45 45 45 45 46 47 48 49 50 50 50 51 52
91 91 91 90 89 89 89 91 93 90 90 93 95 92 90 90 90 89 89 89 88 88 89 89 89 89 90 90 90 89 90 90 89 88 87 86 84 83 82 80 79 78 77 76 76 75 74 72 71 70 68 66 64 62 60 58 56 55 53 52 51 50 49 49 48 48 47 47 47 46 45 45 45 44 44 44 44 44 45 46 47 47 47 48 49 50
91 92 93 92 91 90 90 92 92 89 88 92 94 92 91 91 90 89 89 90 89 89 89 89 90 91 91 91 91 91 90 91 90 88 86 85 84 82 81 80 78 77 77 76 76 75 74 72 70 69 68 66 64 62 60 58 57 55 53 52 51 50 49 48 47 47 46 46 46 45 45 44 44 44 44 43 43 43 43 44 46 46 45 45 47 48
92 93 94 94 92 91 91 93 92 88 86 89 91 91 91 91 90 88 89 89 89 89 89 90 91 92 92 92 92 92 92 92 91 89 87 85 84 83 81 79 78 77 77 76 75 75 73 72 70 69 68 66 64 61 60 58 57 55 53 52 51 50 50 49 47 46 46 45 45 44 44 44 44 44 43 43 42 42 43 43 45 45 44 44 44 45
91 93 95 95 93 91 92 92 92 88 87 88 90 90 90 91 89 88 89 89 89 89 90 91 92 93 93 93 94 94 93 92 91 89 87 86 84 83 81 80 78 77 76 76 75 74 73 72 70 68 67 66 64 61 59 58 56 55 53 52 51 50 49 49 48 46 45 44 44 44 43 43 43 43 43 43 42 42 42 42 44 45 45 43 43 44
91 93 94 94 94 92 91 91 90 89 89 89 89 89 90 90 89 89 89 89 89 90 91 92 93 94 94 94 95 94 93 92 90 89 87 86 85 83 82 80 78 77 76 75 75 74 73 71 70 68 67 65 63 61 59 57 56 55 53 52 51 50 49 49 48 47 45 44 43 43 43 43 42 42 43 43 42 42 41 41 42 45 46 44 43 43
Wind_Direction
285 286 287 288 288 288 289 289 290 290 291 291 291 291 291 292 293 293 293 293 293 293 293 292 293 293 293 293 293 292 291 291 291 291 290 290 289 289 288 287 286 285 284 283 282 282 281 280 280 279 278 278 276 275 273 271 269 268 266 265 263 261 258 257 256 257 258 258 258 257 255 254 253 253 252 250 249 248 247 246 245 245 245 245 245 245
287 287 288 288 289 290 290 291 291 291 291 291 291 292 292 293 294 294 294 294 294 294 294 294 294 294 293 293 292 292 292 292 292 292 292 291 291 290 289 288 287 286 285 284 283 282 281 280 279 278 276 276 275 274 273 272 271 269 267 265 264 262 260 257 256 255 255 256 257 257 256 255 253 252 252 251 250 248 247 247 246 245 245 245 245 244
288 288 289 289 290 290 291 291 291 291 291 292 292 293 294 294 294 295 296 296 296 296 295 295 295 295 294 294 294 294 293 293 293 293 292 292 292 291 290 289 289 288 287 285 284 283 281 280 279 277 276 275 273 272 271 270 270 269 267 266 264 262 260 258 256 254 253 253 254 255 255 255 254 253 251 251 251 249 248 247 247 246 245 245 245 244
288 288 289 289 290 290 290 290 291 291 292 293 294 294 295 295 296 296 296 295 295 295 295 295 295 295 295 295 295 294 294 294 294 293 293 293 293 292 292 291 290 289 288 287 286 285 283 282 280 279 277 276 274 273 271 269 268 267 266 265 264 263 261 259 257 255 253 252 251 252 253 254 254 254 252 251 250 250 249 247 247 247 247 246 245 244
288 289 289 290 290 290 291 291 292 293 294 295 296 296 296 296 296 296 295 295 294 295 295 295 295 295 296 295 295 294 294 294 294 294 293 293 293 292 291 290 289 289 288 287 286 285 284 283 281 280 278 277 275 273 272 270 268 267 265 264 263 262 261 259 258 256 254 252 250 250 250 250 252 253 253 252 250 250 249 248 247 246 247 247 246 245
289 289 290 291 291 292 292 292 293 294 295 296 296 296 296 296 296 296 296 296 296 296 297 297 296 296 296 296 295 295 295 295 294 294 293 293 292 292 291 290 290 289 288 287 286 285 284 283 281 279 278 276 275 274 272 271 269 267 266 264 263 261 260 259 258 256 254 253 251 249 248 248 248 249 250 251 251 250 249 248 247 246 246 246 246 246
290 291 292 292 293 293 294 294 295 295 296 296 296 296 296 297 297 297 298 298 298 298 298 298 297 297 296 295 295 296 296 296 296 295 295 294 294 294 293 293 292 291 290 289 287 286 285 283 282 280 278 277 275 274 272 270 269 267 266 264 263 261 260 259 258 256 255 253 252 250 249 247 246 246 247 248 249 250 250 249 248 247 246 245 246 246
291 292 293 293 294 294 295 295 295 295 296 296 297 297 298 298 299 299 299 300 300 299 299 299 299 299 298 298 297 298 298 298 298 298 297 297 296 296 294 293 292 291 290 289 288 287 285 284 282 281 279 277 275 274 272 270 268 267 265 264 263 262 260 259 258 257 255 254 253 251 249 248 246 245 245 245 246 247 248 249 248 248 247 246 245 246
292 293 294 295 295 295 295 295 295 296 296 297 298 298 298 299 299 300 300 301 301 301 301 301 301 301 300 300 300 300 300 300 299 298 298 297 296 295 295 294 293 292 291 290 289 287 286 284 283 281 280 278 276 274 272 270 268 267 265 263 262 261 260 259 258 257 256 255 253 252 250 249 247 246 245 244 244 244 245 247 248 248 247 246 246 245
293 294 294 294 294 294 295 295 296 297 297 298 299 299 300 301 301 302 302 303 303 303 303 302 302 301 301 301 301 300 299 298 298 297 297 296 296 295 294 293 292 291 291 290 288 287 286 284 282 280 278 277 275 274 273 271 269 268 266 264 262 260 259 258 257 257 256 255 254 253 251 250 248 247 246 245 244 244 243 244 245 246 247 246 246 246
292 292 293 294 295 295 296 297 298 298 299 299 300 301 302 302 303 303 304 304 304 304 303 302 301 301 301 301 300 299 298 298 297 297 297 296 296 295 294 293 293 292 291 289 288 286 285 283 281 279 277 276 274 273 272 271 270 269 267 265 263 261 259 257 256 256 255 254 254 253 252 251 249 248 247 246 245 244 243 243 243 244 245 246 246 245
293 294 295 296 297 297 298 299 299 300 300 301 302 303 303 303 303 303 304 304 303 302 301 300 299 298 299 300 300 299 299 299 299 299 298 297 297 296 295 295 294 293 292 291 289 288 286 284 282 280 278 276 274 272 271 269 268 267 266 265 264 262 260 257 256 255 254 254 253 253 252 252 251 249 248 247 245 245 244 243 243 243 243 244 245 245
295 296 297 297 298 299 299 300 301 302 302 303 303 303 303 303 302 302 302 301 301 299 299 298 299 300 301 301 301 301 301 301 300 300 299 298 298 297 297 296 296 295 295 294 292 291 288 286 283 282 280 278 276 274 271 269 268 266 265 264 263 262 261 259 257 255 254 253 252 252 252 251 251 250 249 248 247 246 245 244 244 243 243 243 243 244
295 296 297 298 299 300 300 301 302 303 303 303 303 302 302 302 302 301 301 300 299 299 299 300 301 302 302 302 302 302 302 301 301 301 300 300 300 299 299 299 298 298 297 295 294 292 289 287 285 282 280 279 277 275 273 270 268 266 264 263 262 262 261 260 258 256 255 253 252 251 250 250 250 250 249 249 248 247 246 245 244 244 243 243 243 243
296 297 298 300 300 301 301 302 303 303 303 303 303 304 304 304 304 303 303 303 302 302 302 302 302 303 303 303 303 302 302 302 303 303 303 303 302 302 301 300 299 298 296 295 294 292 290 287 285 282 280 279 277 275 274 271 269 267 265 264 262 261 260 260 259 258 256 254 253 251 250 249 249 249 249 249 248 248 247 246 245 245 244 244 243 243
298 299 300 300 301 302 303 303 304 304 305 305 306 306 306 306 305 306 306 306 306 306 305 304 304 304 305 304 304 304 304 305 305 305 305 304 303 301 300 299 299 298 297 297 295 293 291 288 285 282 279 277 276 275 274 273 271 269 267 265 264 262 261 260 259 258 257 256 254 253 251 250 249 249 248 248 248 247 247 247 246 245 245 244 244 244
300 300 300 301 302 303 304 305 306 306 307 307 307 307 307 307 308 308 309 308 307 307 307 307 306 305 306 305 305 305 306 306 306 305 304 303 303 302 302 301 302 301 301 300 298 296 293 291 287 284 281 277 275 273 273 272 272 271 269 267 265 263 261 260 259 258 258 257 256 255 253 252 250 249 248 248 247 247 247 247 246 246 245 245 244 244
300 301 302 303 304 305 306 307 308 308 308 308 308 309 310 310 310 309 309 308 308 308 308 308 306 305 306 306 306 306 306 306 306 305 304 304 304 304 304 304 305 304 304 303 301 299 297 294 291 288 285 281 278 275 272 271 270 270 269 268 266 264 262 260 259 259 258 257 256 256 254 253 252 251 249 248 247 247 247 247 246 246 245 245 245 244
301 302 303 305 306 307 308 309 309 309 310 310 311 311 311 311 310 310 310 309 308 307 307 308 308 307 309 309 308 308 308 307 307 307 307 306 306 306 307 307 308 307 306 305 304 302 299 296 293 291 288 285 282 279 276 273 271 270 269 269 268 266 264 261 259 258 258 258 257 256 255 254 253 252 251 250 249 247 247 246 246 246 246 246 245 244
303 304 306 307 308 310 310 310 311 312 312 312 312 312 311 310 310 311 311 310 309 309 310 311 311 310 311 311 310 310 310 310 310 310 309 309 310 310 311 310 310 309 308 308 306 304 302 299 296 293 291 288 285 282 279 276 274 271 269 268 268 267 266 264 261 259 258 257 258 258 257 256 255 253 252 252 251 249 248 247 247 246 246 245 245 245
306 307 308 309 310 311 312 312 313 313 312 311 311 311 310 311 311 311 312 312 311 311 312 313 313 312 313 314 313 313 313 313 313 313 313 313 314 314 313 312 311 310 310 309 308 306 304 301 298 295 293 290 287 284 281 278 276 273 271 269 267 266 265 265 264 262 260 258 257 257 257 257 256 256 254 253 252 251 250 249 248 247 246 246 245 245
308 309 310 310 311 312 313 313 313 312 312 312 312 312 312 312 312 312 313 313 313 312 313 315 317 316 316 317 316 316 316 315 315 316 315 316 316 315 314 313 312 312 311 310 309 307 305 303 300 297 294 291 289 286 284 281 278 275 273 271 269 267 265 264 263 263 262 260 259 258 257 257 257 257 256 255 254 254 253 251 250 250 249 248 247 247
310 310 311 312 312 313 313 313 313 312 313 313 313 313 313 312 312 313 314 315 316 316 316 318 319 318 317 318 317 317 317 316 317 317 318 318 318 316 315 314 314 314 313 312 310 309 307 304 301 298 295 293 290 288 285 283 281 278 275 273 270 268 267 265 264 263 262 261 261 259 259 258 257 257 257 256 256 255 255 254 253 252 251 250 249 249
311 311 312 312 313 313 314 314 314 314 314 314 314 314 314 314 314 315 316 318 319 319 318 319 320 318 317 318 318 318 318 318 318 319 319 319 319 318 317 317 316 316 315 313 312 311 309 307 304 301 298 295 292 290 287 284 282 280 278 275 272 270 268 266 265 263 262 261 260 260 260 259 258 257 257 256 256 255 255 255 254 253 253 252 251 251
312 313 313 313 313 313 314 314 315 315 315 315 315 315 315 316 316 316 318 320 321 320 319 319 321 320 319 319 319 320 320 320 320 320 320 320 320 320 319 318 318 317 316 315 314 312 311 309 307 304 302 299 296 293 290 286 283 281 278 276 274 272 270 268 266 264 263 262 261 260 260 259 259 258 257 257 256 255 255 255 254 254 253 252 252 252
313 314 314 314 314 314 314 315 315 316 316 317 317 318 318 319 318 318 319 321 322 322 321 320 322 323 322 321 322 322 323 322 322 322 323 322 322 322 321 320 319 318 317 316 314 313 311 309 307 305 304 302 299 297 293 290 286 282 279 276 274 272 271 269 268 266 264 263 262 261 260 260 259 259 259 258 257 256 255 254 254 253 253 252 251 251
314 315 315 316 316 317 317 317 318 319 320 321 321 321 322 322 321 321 321 323 324 324 323 322 322 323 323 323 323 324 323 322 322 323 324 324 323 323 322 321 320 319 318 316 314 313 311 310 308 306 305 303 302 300 297 294 290 285 281 278 275 273 271 270 269 268 266 265 263 262 261 261 260 260 259 259 258 258 257 255 254 253 253 252 252 251
316 317 317 318 318 319 320 320 321 322 323 323 324 324 324 324 324 323 322 323 325 325 324 323 323 323 325 325 324 324 324 322 322 323 324 323 323 323 323 322 322 321 319 317 315 313 312 311 309 308 306 305 303 301 299 296 293 289 285 281 278 275 273 271 270 269 268 266 265 263 262 261 260 259 258 258 258 258 257 257 256 255 254 253 252 252
317 318 319 320 320 320 322 323 323 324 324 325 326 326 326 325 325 324 322 323 325 325 324 324 325 325 325 326 325 324 324 323 322 323 324 323 323 324 324 324 323 322 320 318 316 314 312 311 309 308 307 306 304 302 300 297 294 291 288 285 282 279 277 275 272 270 268 267 265 264 262 261 260 259 258 258 258 257 257 257 256 256 256 255 254 253
319 320 321 322 322 322 324 325 325 325 326 327 327 327 326 326 325 325 323 322 325 326 324 324 325 325 326 326 325 324 324 323 322 322 324 323 323 325 325 325 325 323 322 320 318 316 314 313 311 310 309 308 307 305 302 299 296 293 290 287 285 283 281 278 275 272 270 268 266 264 263 261 260 259 259 258 258 257 257 257 256 256 256 256 256 255
321 322 322 324 324 324 325 326 326 326 327 328 327 327 326 326 326 326 323 322 324 326 325 325 325 325 325 325 325 324 324 323 322 322 324 324 324 325 325 325 325 324 323 321 320 319 317 316 314 313 312 311 309 307 305 302 298 295 292 289 287 286 284 282 279 276 272 269 267 265 264 262 261 260 259 258 258 257 257 257 257 256 256 256 256 256
323 323 324 325 325 325 326 327 327 327 327 328 327 327 327 327 327 327 324 322 324 326 326 325 325 325 325 325 325 325 325 324 322 321 323 324 324 325 325 325 325 324 323 322 321 320 319 317 316 315 313 312 310 308 306 304 301 298 295 292 290 288 287 285 282 280 276 273 269 266 265 264 263 261 260 259 258 258 257 257 257 257 256 256 256 255
324 325 325 326 326 326 326 327 328 327 327 328 328 327 328 327 327 328 326 322 323 326 326 325 325 325 325 325 325 325 325 324 322 321 323 324 324 325 326 326 325 324 323 323 322 322 321 319 317 315 314 313 311 309 307 305 302 300 298 296 294 292 290 288 285 282 279 276 273 270 267 265 263 262 261 261 260 259 258 257 257 257 256 256 255 255
326 326 326 327 327 327 327 327 328 328 327 328 328 327 328 328 327 329 328 323 323 326 327 326 325 325 325 325 325 325 325 324 322 322 324 325 325 326 327 326 326 325 324 324 324 323 322 320 318 316 315 314 312 310 308 305 303 300 299 297 296 295 293 290 288 285 281 279 276 274 271 268 265 263 262 261 260 260 259 258 257 257 257 257 256 256
327 327 327 327 327 327 328 328 328 329 328 328 328 328 329 329 327 329 330 325 323 326 327 326 325 325 325 325 325 324 325 325 324 323 325 327 327 327 328 327 326 325 324 324 324 323 322 320 318 317 316 315 313 311 308 305 303 301 299 297 297 295 294 292 290 286 284 281 279 277 274 271 268 266 264 263 262 261 260 259 258 257 257 257 256 256
328 327 328 328 327 326 328 328 328 329 330 329 329 328 329 329 327 328 330 326 323 325 327 326 326 325 325 325 325 325 326 327 326 325 326 328 328 328 328 327 326 325 324 323 323 322 321 320 318 317 316 315 314 311 309 306 303 301 299 297 296 295 294 293 291 288 286 284 282 279 277 274 271 269 266 265 263 262 261 260 259 258 257 257 256 256
328 328 329 329 327 326 328 329 328 329 330 329 328 328 329 329 327 327 330 328 324 325 327 327 326 326 326 325 325 325 326 328 327 326 326 328 328 327 328 327 325 325 324 323 323 322 322 321 319 318 317 316 314 313 310 308 305 302 300 298 297 296 294 293 291 290 288 286 283 281 279 277 274 272 270 268 266 264 262 261 260 259 258 257 256 255
329 328 329 329 327 326 327 328 327 329 330 329 328 327 329 329 327 326 329 328 325 325 327 327 326 326 326 326 326 326 327 328 329 327 327 328 328 327 327 327 326 325 324 324 323 323 322 322 320 319 318 317 316 315 313 310 307 304 302 300 298 297 296 295 293 291 289 287 284 282 281 279 276 274 272 270 268 266 265 263 261 260 259 258 258 257
328 328 329 329 327 326 327 328 327 329 330 329 328 328 329 330 328 326 328 328 326 326 327 328 327 327 328 328 328 328 327 328 330 329 328 329 328 328 328 328 327 326 325 324 324 323 323 322 321 320 319 318 317 316 314 312 310 307 304 302 300 299 298 296 295 293 290 288 285 283 281 280 278 276 274 272 270 268 267 265 264 262 260 259 259 258
328 327 329 329 327 326 327 327 327 329 331 330 328 328 329 330 328 327 328 329 328 328 329 329 329 328 329 329 329 329 329 329 330 331 330 330 329 329 328 328 327 326 326 325 324 323 323 322 321 320 319 318 318 317 316 315 312 309 306 304 302 301 299 298 296 294 291 289 287 285 283 281 280 278 277 274 272 270 269 267 266 264 262 260 259 259
326 327 329 329 326 326 327 327 326 329 331 329 327 328 330 331 329 328 330 330 329 330 330 330 329 329 329 330 330 330 330 330 331 332 331 330 330 329 329 328 327 326 325 324 324 323 323 322 321 321 319 319 319 318 317 315 312 309 307 306 304 303 301 299 297 294 292 289 287 286 284 282 281 280 278 276 274 272 270 269 268 266 264 262 261 260
325 327 329 329 327 327 328 327 326 329 332 330 328 328 330 331 330 329 331 331 330 330 331 331 330 329 330 331 331 331 331 331 332 332 331 331 330 330 329 328 327 326 325 324 323 323 323 322 322 321 320 320 320 319 317 315 312 310 308 307 306 305 303 301 299 296 293 290 287 286 284 283 282 280 279 277 275 273 272 270 268 267 266 264 263 261
325 327 329 329 328 329 330 327 326 330 332 331 328 328 330 331 330 330 331 331 330 330 330 330 330 330 330 331 332 331 332 331 332 332 331 331 330 329 329 328 327 326 325 324 323 323 322 322 322 321 321 320 320 319 317 315 313 311 310 309 307 306 304 303 301 298 294 291 288 286 284 282 281 280 279 278 276 275 273 271 269 268 267 266 264 263
325 327 328 329 329 330 330 328 326 329 332 330 328 329 330 331 330 330 331 331 330 330 330 330 330 330 330 331 332 332 331 331 331 331 331 331 330 329 328 328 327 326 325 324 323 323 322 323 322 322 321 321 320 319 318 316 315 313 312 311 309 307 306 304 302 299 297 294 291 288 285 283 281 280 278 277 276 275 273 272 270 269 268 267 266 264
324 326 328 329 330 330 330 327 325 329 331 329 327 328 330 330 329 330 331 330 330 330 330 330 331 330 330 331 331 331 331 331 331 331 330 330 329 328 328 327 327 326 325 324 324 323 323 323 323 322 322 321 320 319 318 317 316 314 313 311 310 308 306 305 303 300 298 296 293 291 288 286 283 281 279 277 276 274 273 272 271 270 269 268 267 266
325 327 328 329 329 330 329 326 325 330 332 328 327 329 330 330 330 330 331 330 330 330 330 331 331 330 330 330 330 331 331 330 330 330 330 330 329 328 328 327 326 326 325 324 324 324 323 324 324 323 322 322 321 320 319 317 316 314 313 312 310 308 306 304 302 301 298 297 295 293 291 288 285 283 280 278 276 275 273 272 271 270 270 269 268 266
326 327 328 328 329 329 329 326 326 330 332 328 326 329 330 330 330 331 331 330 330 331 331 331 330 330 330 330 330 330 331 330 330 330 330 330 329 328 328 327 326 326 325 325 325 324 324 324 324 323 323 322 321 320 319 318 317 315 314 312 310 308 306 304 302 300 298 297 295 293 291 289 287 284 282 280 278 276 274 273 271 270 269 269 268 268
327 328 327 328 329 329 328 326 327 331 332 328 327 329 330 330 330 331 330 330 330 331 330 330 330 329 329 330 330 330 331 330 330 330 330 330 329 328 327 327 327 327 326 326 325 325 324 324 324 323 323 322 321 321 320 318 317 316 314 313 311 309 307 305 303 301 298 296 295 293 292 290 287 285 283 281 280 278 276 274 273 271 270 269 268 268
328 328 327 327 328 329 328 327 327 331 331 328 327 329 330 329 329 330 330 329 330 330 330 329 329 329 329 330 330 331 331 330 330 330 330 330 329 328 328 327 327 327 327 326 325 325 324 324 324 324 323 322 322 321 320 319 317 316 314 313 311 309 308 306 304 302 299 297 295 293 292 290 288 286 284 282 280 279 277 276 275 274 272 270 269 268
328 327 326 327 328 328 328 327 328 330 330 328 328 329 328 328 329 330 330 329 330 329 329 329 329 329 330 330 330 330 330 330 330 330 330 330 329 328 328 328 328 327 327 326 326 325 325 325 324 324 323 322 322 321 320 319 317 316 314 313 311 310 308 306 304 302 300 298 296 294 292 290 288 286 284 283 281 279 278 276 276 275 274 272 270 269
328 327 327 327 327 328 328 328 329 330 329 329 329 329 328 327 329 330 329 329 329 329 329 329 329 329 330 330 330 330 330 330 330 330 330 330 329 329 328 328 328 327 327 327 326 325 325 325 325 324 324 322 322 321 320 319 317 316 315 313 312 310 309 307 305 303 301 299 297 295 293 291 289 287 285 283 282 280 278 276 275 275 275 273 271 270